Location: Rounton
(54.4000°N, 1.3500°W)
Time: 13:33:03
(UTC+00:00)

Transit 2A Rocket - Pass Details

Date: 01 December 2021
Orbit: 584 x 918 km, 66.7° (Epoch: 17 January)

Event Time Altitude Azimuth Distance (km) Brightness Sun altitude
Rises 15:23:32 0° 315° (NW) 3,560 8.5 1.6°
Reaches altitude 10° 15:26:09 10° 320° (NW) 2,622 7.8 1.3°
Maximum altitude 15:32:12 55° 38° (NE) 1,089 5.5 0.6°
Drops below altitude 10° 15:38:03 10° 116° (ESE) 2,540 7.5 0.0°
Sets 15:40:32 0° 121° (ESE) 3,439 8.2 -0.3°
